Regional Weather Roundup
Issued by NWS Sterling, VA

Home | Current Version | Previous Version | Graphics & Text | Print | Product List | Glossary On
Versions: 1 2 3 4 5 6 7 8 9 10 11 12 13 14 15 16 17 18 19 20 21 22 23 24 25 26 27
000
ASUS41 KLWX 220611
RWRLWX

REGIONAL WEATHER ROUNDUP
NATIONAL WEATHER SERVICE BALTIMORE MD/WASHINGTON DC
100 AM EST THU FEB 22 2018

Note: "FAIR" indicates few or no clouds below 12,000 feet
with no significant weather and/or obstructions to visibility.
 TC=TEMPERATURE CELSIUS

 * =Non NWS site. Station does not report precipitation (e.g. rain,
    snow, etc.), thunder, or fog.

DCZ001-MDZ009-015-VAZ040>042-051-053>054-220700-
WASHINGTON METRO

CITY           SKY/WX    TMP DP  RH WIND       PRES   REMARKS
WASHINGTON NAT MOCLDY    66  60  81 N6        30.38R
DULLES         CLOUDY    65  56  72 N10       30.40R
ANDREWS AFB    FAIR      60  56  87 N5        30.38R
FT BELVOIR     FAIR      60  57  90 CALM      30.38R
QUANTICO       FAIR      59  58  96 CALM      30.38S
COLLEGE PARK*  MOCLDY    67  59  77 N3        30.38S
LEESBURG*      CLOUDY    64  57  77 NE9       30.42R
MANASSAS*      MOCLDY    63  56  78 N5        30.39S
GAITHERSBURG*  CLOUDY    63  56  78 VRB5      30.41R

$$

MDZ006>007-011-014-220700-
BALTIMORE METRO

CITY           SKY/WX    TMP DP  RH WIND       PRES   REMARKS
BWI AIRPORT    MOCLDY    65  57  75 NE9       30.39R
MD SCIENCE CTR   N/A     67  56  67 MISG      30.39R
MARTIN STATE   CLOUDY    63  59  88 N3        30.42R
ANNAPOLIS      CLOUDY    62  58  86 N7        30.38R
FORT MEADE*    MOCLDY    64  55  72 NE5       30.41R

$$

MDZ012-015-019>023-220700-
MARYLAND EASTERN SHORE

CITY           SKY/WX    TMP DP  RH WIND       PRES   REMARKS
OCEAN CITY     FAIR      54  54 100 CALM      30.39S
SALISBURY      FAIR      64  61  90 SW5       30.38S
BAY BRIDGE AP* CLOUDY    57  54  88 N3        30.39R
CAMBRIDGE*       N/A     63  61  94 CALM      30.38S
EASTON*        CLOUDY    66  61  86 SW7       30.42R

$$

MDZ017>025-220700-
SOUTHERN MARYLAND

CITY           SKY/WX    TMP DP  RH WIND       PRES   REMARKS
PATUXENT RIVER FAIR      67  62  84 SW5       30.38R
ST INIGOES     FAIR      64  60  87 CALM      30.37R
LEONARDTOWN*   FAIR      64  61  88 SW5       30.40R

$$

MDZ003>005-220700-
NORTH CENTRAL MARYLAND

CITY           SKY/WX    TMP DP  RH WIND       PRES   REMARKS
FREDERICK*     CLOUDY    57  46  67 N15G23    30.46R
HAGERSTOWN APT CLOUDY    55  49  80 N14       30.43S
WESTMINSTER*   CLOUDY    55  52  88 N10G17    30.45R

$$

MDZ501>502-220700-
WESTERN MARYLAND

CITY           SKY/WX    TMP DP  RH WIND       PRES   REMARKS
OAKLAND*       CLOUDY    43  43 100 CALM      30.44R VSB<1/4
CUMBERLAND*    NOT AVBL

$$

VAZ025>031-220700-
SHENANDOAH VALLEY

CITY           SKY/WX    TMP DP  RH WIND       PRES   REMARKS
WINCHESTER*    CLOUDY    59  52  77 N3        30.43R
FRONT ROYAL*   CLOUDY    63  54  72 NE5       30.40S
LURAY*         CLOUDY    61  57  88 N8        30.40R
NEW MARKET*    CLOUDY    62  58  88 N5        30.38S
STAUNTON*      CLOUDY    58  58 100 CALM      30.40F FOG
WAYNESBORO*    FAIR      58  58 100 CALM      30.39S

$$

WVZ021-048>050-054>055-220700-
EASTERN WEST VIRGINIA PANHANDLE

CITY           SKY/WX    TMP DP  RH WIND       PRES   REMARKS
MARTINSBURG    CLOUDY    60  53  77 N12       30.41R
PETERSBURG*    CLOUDY    58  55  88 CALM      30.42R

$$

VAZ036>039-050-220700-
CENTRAL FOOTHILLS

CITY           SKY/WX    TMP DP  RH WIND       PRES   REMARKS
CHARLOTTESVILL FAIR      65  60  84 S7        30.37S
CULPEPER*      CLOUDY    62  60  94 CALM      30.39S
ORANGE*        FAIR      55  55 100 CALM      30.38R
GORDONSVILLE*  FAIR      56  56 100 CALM      30.37S
WARRENTON*     CLOUDY    65  58  76 CALM      30.38S

$$

VAZ055>057-220700-
NORTH AND CENTRAL PIEDMONT

CITY           SKY/WX    TMP DP  RH WIND       PRES   REMARKS
FREDERICKSBRG* CLOUDY    66  62  86 CALM      30.37R
STAFFORD*      CLOUDY    65  64  94 CALM      30.42S

$$

NCZ024-NYZ072-PAZ021-071-VAZ022-071-220700-
OTHER REGIONAL OBSERVATIONS

CITY           SKY/WX    TMP DP  RH WIND       PRES   REMARKS
NEW YORK CITY  CLOUDY    58  47  66 VRB5      30.45R
PHILADELPHIA   CLOUDY    57  46  66 N14       30.43R
PITTSBURGH     LGT RAIN  43  36  76 N7        30.50S
ROANOKE        FAIR      64  60  87 SE6       30.41R
RICHMOND       FAIR      63  60  90 S7        30.39S
RALEIGH        FAIR      66  63  90 SW9       30.42F

$$

ANZ530>537-220700-
MARINE OBSERVATIONS

STATION/POSITION TIME  TEMP    WIND        PRES
                       AIR SEA DIR/SP/G
                 (UTC) (F)     (DEG/KT/KT) (MB)
THOMAS PT LIGHT  NOT AVBL
BALT KEY BRIDGE  0548           20/  8/  9 1029.3R
COVE POINT       0548          180/  5/  7 1029.3R
LEWISETTA        0548      52  230/  7/  9 1028.6R
SOLOMONS ISLAND  0548      43  230/  2/  4 1028.4R
PINEY POINT      0548          250/  2/  2   N/A

$$





USA.gov is the U.S. government's official web portal to all federal, state and local government web resources and services.